Tracking 20083 objects as of 9-Dec-2019
HD Live streaming from Space Station
objects crossing your sky now

ARIANE 2 DEB

Track ARIANE 2 DEB now!


NORAD ID: 27650
Int'l Code: 1989-006AE
Perigee: 359.8 km
Apogee: 35,213.6 km
Inclination: 8.0 °
Period: 622.8 minutes
Semi major axis: 24157 km
RCS: 0.1719 m2 (medium)
Launch date: January 27, 1989
Source: France (FR)
Launch site: FRENCH GUIANA (FRGUI)

Note: This is SATELLITE DEBRIS
aabbcc
Your satellite tracking list
Your tracking list is empty




NASA's NSSDC Master Catalog

Two Line Element Set (TLE):
1 27650U 89006AE  19341.49152757 -.00000079  00000-0  37062-4 0  9990
2 27650   8.0093 150.1623 7213825 317.0585   5.1120  2.31216864152827
Source of the keplerian elements: AFSPC